Time,TemperatureF,DewpointF,PressureIn,WindDirection,WindDirectionDegrees,WindSpeedMPH,WindSpeedGustMPH,Humidity,HourlyPrecipIn,Conditions,Clouds,dailyrainin,SoftwareType,DateUTC
2013-05-11 00:00:00,56.0,55.0,29.66,South,180,3.0,3.0,96,0.60,,,0.10,TxWx,2013-05-11 04:00:00,
2013-05-11 00:41:00,56.0,55.0,29.65,South,180,1.0,1.0,96,0.60,,,0.06,TxWx,2013-05-11 04:41:00,
2013-05-11 00:47:00,56.0,55.0,29.65,South,180,1.0,1.0,96,0.60,,,0.07,TxWx,2013-05-11 04:47:00,
2013-05-11 00:52:00,56.0,55.0,29.64,South,180,4.0,4.0,96,0.60,,,0.07,TxWx,2013-05-11 04:52:00,
2013-05-11 00:57:00,56.0,55.0,29.64,SSE,157,4.0,6.0,96,0.60,,,0.08,TxWx,2013-05-11 04:57:00,
2013-05-11 01:02:00,56.0,55.0,29.64,SSW,202,1.0,1.0,97,0.60,,,0.08,TxWx,2013-05-11 05:02:00,
2013-05-11 01:07:00,56.0,55.0,29.64,SE,135,1.0,1.0,97,0.60,,,0.09,TxWx,2013-05-11 05:07:00,
2013-05-11 01:13:00,56.0,55.0,29.63,South,180,0.0,0.0,97,0.60,,,0.09,TxWx,2013-05-11 05:13:00,
2013-05-11 01:18:00,56.0,55.0,29.63,SSE,157,2.0,3.0,97,0.60,,,0.09,TxWx,2013-05-11 05:18:00,
2013-05-11 01:23:00,56.0,55.0,29.62,East,90,5.0,5.0,97,0.00,,,0.09,TxWx,2013-05-11 05:23:00,
2013-05-11 01:29:00,56.0,55.0,29.62,ESE,112,3.0,3.0,97,0.00,,,0.09,TxWx,2013-05-11 05:29:00,
2013-05-11 01:34:00,56.0,55.0,29.62,South,180,1.0,3.0,97,0.00,,,0.09,TxWx,2013-05-11 05:34:00,
2013-05-11 01:39:00,55.0,54.0,29.61,ESE,112,2.0,3.0,97,0.00,,,0.09,TxWx,2013-05-11 05:39:00,
2013-05-11 01:44:00,55.0,54.0,29.61,SSE,157,2.0,3.0,97,0.00,,,0.09,TxWx,2013-05-11 05:44:00,
2013-05-11 01:49:00,55.0,54.0,29.61,SE,135,1.0,2.0,97,0.00,,,0.09,TxWx,2013-05-11 05:49:00,
2013-05-11 01:55:00,55.0,54.0,29.61,ESE,112,2.0,3.0,97,0.00,,,0.09,TxWx,2013-05-11 05:55:00,
2013-05-11 02:00:00,55.0,54.0,29.61,SW,225,2.0,2.0,97,0.60,,,0.10,TxWx,2013-05-11 06:00:00,
2013-05-11 02:05:00,55.0,54.0,29.60,ESE,112,1.0,4.0,97,0.60,,,0.10,TxWx,2013-05-11 06:05:00,
2013-05-11 02:10:00,56.0,55.0,29.60,South,180,1.0,1.0,97,0.00,,,0.10,TxWx,2013-05-11 06:10:00,
2013-05-11 02:15:00,56.0,55.0,29.60,South,180,1.0,2.0,97,0.00,,,0.10,TxWx,2013-05-11 06:15:00,
2013-05-11 02:20:00,56.0,55.0,29.60,SE,135,5.0,5.0,97,0.60,,,0.11,TxWx,2013-05-11 06:20:00,
2013-05-11 02:26:00,56.0,55.0,29.60,SE,135,3.0,3.0,98,0.60,,,0.11,TxWx,2013-05-11 06:26:00,
2013-05-11 02:31:00,56.0,55.0,29.59,SSW,202,3.0,5.0,98,0.00,,,0.11,TxWx,2013-05-11 06:31:00,
2013-05-11 02:36:00,56.0,55.0,29.59,NNW,337,2.0,3.0,98,0.00,,,0.11,TxWx,2013-05-11 06:36:00,
2013-05-11 02:41:00,56.0,55.0,29.58,South,180,1.0,2.0,98,0.60,,,0.12,TxWx,2013-05-11 06:41:00,
2013-05-11 02:46:00,56.0,55.0,29.58,SSE,157,4.0,4.0,98,0.60,,,0.12,TxWx,2013-05-11 06:46:00,
2013-05-11 02:51:00,56.0,55.0,29.58,SE,135,4.0,5.0,98,0.60,,,0.13,TxWx,2013-05-11 06:51:00,
2013-05-11 02:56:00,56.0,55.0,29.58,South,180,1.0,2.0,98,0.60,,,0.13,TxWx,2013-05-11 06:56:00,
2013-05-11 03:02:00,56.0,55.0,29.58,South,180,2.0,2.0,98,0.00,,,0.13,TxWx,2013-05-11 07:02:00,
2013-05-11 03:07:00,56.0,55.0,29.57,ESE,112,3.0,5.0,98,0.00,,,0.14,TxWx,2013-05-11 07:07:00,
2013-05-11 03:12:00,56.0,55.0,29.57,SE,135,3.0,3.0,98,0.60,,,0.14,TxWx,2013-05-11 07:12:00,
2013-05-11 03:17:00,56.0,55.0,29.57,ESE,112,1.0,1.0,98,0.60,,,0.15,TxWx,2013-05-11 07:17:00,
2013-05-11 03:23:00,56.0,55.0,29.56,SSE,157,2.0,3.0,98,0.60,,,0.15,TxWx,2013-05-11 07:23:00,
2013-05-11 03:28:00,55.0,54.0,29.56,SSE,157,1.0,1.0,98,0.60,,,0.15,TxWx,2013-05-11 07:28:00,
2013-05-11 03:33:00,55.0,54.0,29.56,SSW,202,1.0,2.0,98,0.00,,,0.15,TxWx,2013-05-11 07:33:00,
2013-05-11 03:38:00,55.0,54.0,29.56,ESE,112,3.0,3.0,98,0.00,,,0.15,TxWx,2013-05-11 07:38:00,
2013-05-11 03:43:00,55.0,54.0,29.55,South,180,1.0,1.0,98,0.60,,,0.16,TxWx,2013-05-11 07:43:00,
2013-05-11 03:48:00,55.0,54.0,29.55,SSE,157,1.0,1.0,98,0.60,,,0.16,TxWx,2013-05-11 07:48:00,
2013-05-11 03:54:00,55.0,54.0,29.55,ESE,112,1.0,1.0,98,0.00,,,0.16,TxWx,2013-05-11 07:54:00,
2013-05-11 03:59:00,55.0,54.0,29.55,SSW,202,1.0,1.0,98,0.00,,,0.16,TxWx,2013-05-11 07:59:00,
2013-05-11 04:04:00,55.0,54.0,29.55,ESE,112,2.0,2.0,98,0.00,,,0.17,TxWx,2013-05-11 08:04:00,
2013-05-11 04:09:00,55.0,54.0,29.55,South,180,0.0,1.0,98,0.00,,,0.17,TxWx,2013-05-11 08:09:00,
2013-05-11 04:14:00,55.0,54.0,29.54,SSW,202,1.0,2.0,98,0.60,,,0.17,TxWx,2013-05-11 08:14:00,
2013-05-11 04:19:00,55.0,54.0,29.54,SW,225,2.0,2.0,98,0.60,,,0.17,TxWx,2013-05-11 08:19:00,
2013-05-11 04:24:00,55.0,54.0,29.54,South,180,0.0,1.0,98,0.00,,,0.17,TxWx,2013-05-11 08:24:00,
2013-05-11 04:29:00,55.0,54.0,29.54,SSW,202,2.0,3.0,98,0.00,,,0.17,TxWx,2013-05-11 08:29:00,
2013-05-11 04:35:00,56.0,55.0,29.53,SSW,202,1.0,3.0,98,0.60,,,0.18,TxWx,2013-05-11 08:35:00,
2013-05-11 04:40:00,56.0,55.0,29.54,SSW,202,3.0,3.0,98,0.60,,,0.20,TxWx,2013-05-11 08:40:00,
2013-05-11 04:46:00,56.0,55.0,29.53,SSE,157,4.0,4.0,98,0.60,,,0.20,TxWx,2013-05-11 08:46:00,
2013-05-11 04:51:00,56.0,55.0,29.53,SE,135,2.0,3.0,98,0.60,,,0.21,TxWx,2013-05-11 08:51:00,
2013-05-11 04:56:00,56.0,55.0,29.53,East,90,3.0,5.0,98,0.60,,,0.22,TxWx,2013-05-11 08:56:00,
2013-05-11 05:01:00,56.0,55.0,29.53,SW,225,5.0,6.0,98,0.60,,,0.23,TxWx,2013-05-11 09:01:00,
2013-05-11 05:07:00,56.0,55.0,29.53,ENE,67,3.0,5.0,98,0.60,,,0.23,TxWx,2013-05-11 09:07:00,
2013-05-11 05:12:00,56.0,55.0,29.53,SSW,202,4.0,6.0,98,0.60,,,0.23,TxWx,2013-05-11 09:12:00,
2013-05-11 05:17:00,56.0,55.0,29.53,SW,225,5.0,5.0,98,0.60,,,0.23,TxWx,2013-05-11 09:17:00,
2013-05-11 05:22:00,56.0,55.0,29.53,SW,225,1.0,1.0,98,0.00,,,0.23,TxWx,2013-05-11 09:22:00,
2013-05-11 05:28:00,56.0,55.0,29.53,SW,225,1.0,3.0,98,0.00,,,0.24,TxWx,2013-05-11 09:28:00,
2013-05-11 05:33:00,56.0,55.0,29.52,SSW,202,2.0,2.0,98,0.60,,,0.24,TxWx,2013-05-11 09:33:00,
2013-05-11 05:38:00,56.0,55.0,29.52,SSW,202,3.0,5.0,98,0.60,,,0.24,TxWx,2013-05-11 09:38:00,
2013-05-11 05:43:00,56.0,55.0,29.52,SSE,157,1.0,2.0,98,0.00,,,0.24,TxWx,2013-05-11 09:43:00,
2013-05-11 05:48:00,56.0,55.0,29.52,South,180,4.0,4.0,98,0.00,,,0.24,TxWx,2013-05-11 09:48:00,
2013-05-11 05:54:00,56.0,55.0,29.52,SSW,202,3.0,4.0,98,0.00,,,0.24,TxWx,2013-05-11 09:54:00,
2013-05-11 05:59:00,56.0,55.0,29.52,SSW,202,3.0,3.0,98,0.00,,,0.25,TxWx,2013-05-11 09:59:00,
2013-05-11 06:04:00,56.0,55.0,29.52,West,270,4.0,4.0,98,0.60,,,0.26,TxWx,2013-05-11 10:04:00,
2013-05-11 06:09:00,56.0,55.0,29.53,WSW,247,2.0,3.0,98,0.60,,,0.26,TxWx,2013-05-11 10:09:00,
2013-05-11 06:14:00,56.0,55.0,29.53,South,180,3.0,4.0,98,0.60,,,0.26,TxWx,2013-05-11 10:14:00,
2013-05-11 06:19:00,56.0,55.0,29.53,SSE,157,4.0,4.0,98,0.60,,,0.27,TxWx,2013-05-11 10:19:00,
2013-05-11 06:25:00,56.0,55.0,29.52,WSW,247,3.0,3.0,98,0.60,,,0.27,TxWx,2013-05-11 10:25:00,
2013-05-11 06:30:00,56.0,55.0,29.52,SE,135,2.0,3.0,98,0.00,,,0.27,TxWx,2013-05-11 10:30:00,
2013-05-11 06:35:00,56.0,55.0,29.53,WSW,247,1.0,3.0,98,0.00,,,0.27,TxWx,2013-05-11 10:35:00,
2013-05-11 06:40:00,56.0,55.0,29.52,ESE,112,3.0,3.0,98,0.00,,,0.27,TxWx,2013-05-11 10:40:00,
2013-05-11 06:45:00,56.0,55.0,29.52,South,180,1.0,1.0,98,0.00,,,0.27,TxWx,2013-05-11 10:45:00,
2013-05-11 06:51:00,56.0,56.0,29.52,SW,225,1.0,1.0,99,0.00,,,0.27,TxWx,2013-05-11 10:51:00,
2013-05-11 06:56:00,56.0,56.0,29.52,West,270,4.0,5.0,99,0.00,,,0.28,TxWx,2013-05-11 10:56:00,
2013-05-11 07:02:00,56.0,56.0,29.52,WSW,247,6.0,6.0,99,0.60,,,0.28,TxWx,2013-05-11 11:02:00,
2013-05-11 07:07:00,56.0,56.0,29.52,SSW,202,4.0,6.0,99,0.60,,,0.28,TxWx,2013-05-11 11:07:00,
2013-05-11 07:12:00,56.0,56.0,29.52,SW,225,4.0,4.0,99,0.00,,,0.28,TxWx,2013-05-11 11:12:00,
2013-05-11 07:17:00,56.0,56.0,29.52,WSW,247,8.0,8.0,99,0.00,,,0.28,TxWx,2013-05-11 11:17:00,
2013-05-11 07:22:00,56.0,56.0,29.52,WSW,247,3.0,4.0,99,0.60,,,0.29,TxWx,2013-05-11 11:22:00,
2013-05-11 07:27:00,56.0,56.0,29.52,SW,225,6.0,8.0,99,0.60,,,0.30,TxWx,2013-05-11 11:27:00,
2013-05-11 07:32:00,56.0,56.0,29.52,SW,225,4.0,6.0,99,0.60,,,0.30,TxWx,2013-05-11 11:32:00,
2013-05-11 07:37:00,56.0,56.0,29.52,SW,225,1.0,3.0,99,0.60,,,0.31,TxWx,2013-05-11 11:37:00,
2013-05-11 07:42:00,56.0,56.0,29.52,South,180,6.0,7.0,99,0.60,,,0.31,TxWx,2013-05-11 11:42:00,
2013-05-11 07:48:00,56.0,56.0,29.52,WSW,247,3.0,4.0,99,0.60,,,0.31,TxWx,2013-05-11 11:48:00,
2013-05-11 07:53:00,56.0,56.0,29.52,SW,225,1.0,2.0,99,0.00,,,0.31,TxWx,2013-05-11 11:53:00,
2013-05-11 07:58:00,56.0,56.0,29.52,SW,225,5.0,5.0,99,0.00,,,0.31,TxWx,2013-05-11 11:58:00,
2013-05-11 08:03:00,57.0,57.0,29.52,West,270,3.0,3.0,99,0.00,,,0.31,TxWx,2013-05-11 12:03:00,
2013-05-11 08:08:00,57.0,57.0,29.52,WSW,247,6.0,8.0,99,0.00,,,0.31,TxWx,2013-05-11 12:08:00,
2013-05-11 08:13:00,57.0,57.0,29.52,SSW,202,1.0,2.0,99,0.00,,,0.31,TxWx,2013-05-11 12:13:00,
2013-05-11 08:19:00,57.0,57.0,29.52,SW,225,4.0,4.0,99,0.00,,,0.31,TxWx,2013-05-11 12:19:00,
2013-05-11 08:24:00,57.0,57.0,29.52,SSW,202,5.0,5.0,99,0.00,,,0.31,TxWx,2013-05-11 12:24:00,
2013-05-11 08:29:00,57.0,57.0,29.52,SSW,202,5.0,5.0,99,0.00,,,0.31,TxWx,2013-05-11 12:29:00,
2013-05-11 08:34:00,57.0,57.0,29.52,South,180,5.0,6.0,99,0.00,,,0.31,TxWx,2013-05-11 12:34:00,
2013-05-11 08:39:00,57.0,57.0,29.52,SSW,202,5.0,5.0,99,0.00,,,0.31,TxWx,2013-05-11 12:39:00,
2013-05-11 08:44:00,57.0,57.0,29.52,WSW,247,3.0,4.0,99,0.00,,,0.31,TxWx,2013-05-11 12:44:00,
2013-05-11 08:50:00,57.0,57.0,29.52,SSW,202,4.0,5.0,99,0.00,,,0.31,TxWx,2013-05-11 12:50:00,
2013-05-11 08:55:00,57.0,57.0,29.51,SW,225,3.0,4.0,99,0.00,,,0.31,TxWx,2013-05-11 12:55:00,
2013-05-11 09:00:00,57.0,57.0,29.51,SSW,202,5.0,9.0,99,0.00,,,0.31,TxWx,2013-05-11 13:00:00,
2013-05-11 09:05:00,58.0,58.0,29.51,SSW,202,1.0,2.0,99,0.00,,,0.31,TxWx,2013-05-11 13:05:00,
2013-05-11 09:10:00,58.0,58.0,29.51,SSW,202,4.0,5.0,99,0.00,,,0.31,TxWx,2013-05-11 13:10:00,
2013-05-11 09:16:00,58.0,58.0,29.51,WSW,247,3.0,4.0,99,0.00,,,0.31,TxWx,2013-05-11 13:16:00,
2013-05-11 09:21:00,58.0,57.0,29.51,SE,135,3.0,6.0,98,0.00,,,0.31,TxWx,2013-05-11 13:21:00,
2013-05-11 09:26:00,58.0,57.0,29.51,SSE,157,2.0,3.0,98,0.00,,,0.31,TxWx,2013-05-11 13:26:00,
2013-05-11 09:32:00,58.0,57.0,29.51,South,180,3.0,3.0,98,0.00,,,0.31,TxWx,2013-05-11 13:32:00,
2013-05-11 09:37:00,58.0,57.0,29.51,SSE,157,5.0,5.0,98,0.00,,,0.31,TxWx,2013-05-11 13:37:00,
2013-05-11 09:42:00,58.0,57.0,29.51,SW,225,3.0,4.0,98,0.00,,,0.31,TxWx,2013-05-11 13:42:00,
2013-05-11 09:47:00,58.0,57.0,29.51,SSE,157,2.0,4.0,98,0.00,,,0.31,TxWx,2013-05-11 13:47:00,
2013-05-11 09:52:00,58.0,57.0,29.51,SW,225,2.0,3.0,98,0.00,,,0.31,TxWx,2013-05-11 13:52:00,
2013-05-11 09:58:00,58.0,57.0,29.51,West,270,4.0,6.0,98,0.00,,,0.31,TxWx,2013-05-11 13:58:00,
2013-05-11 10:03:00,58.0,57.0,29.51,SE,135,5.0,5.0,98,0.00,,,0.31,TxWx,2013-05-11 14:03:00,
2013-05-11 10:08:00,58.0,57.0,29.51,SW,225,1.0,1.0,98,0.00,,,0.31,TxWx,2013-05-11 14:08:00,
2013-05-11 10:13:00,58.0,57.0,29.50,SSE,157,4.0,5.0,98,0.00,,,0.31,TxWx,2013-05-11 14:13:00,
2013-05-11 10:19:00,58.0,57.0,29.50,WNW,292,1.0,1.0,98,0.00,,,0.31,TxWx,2013-05-11 14:19:00,
2013-05-11 10:24:00,58.0,57.0,29.50,SSW,202,3.0,5.0,98,0.00,,,0.31,TxWx,2013-05-11 14:24:00,
2013-05-11 10:29:00,58.0,57.0,29.50,ESE,112,2.0,2.0,98,0.00,,,0.31,TxWx,2013-05-11 14:29:00,
2013-05-11 10:34:00,58.0,57.0,29.50,WSW,247,2.0,5.0,98,0.00,,,0.31,TxWx,2013-05-11 14:34:00,
2013-05-11 10:40:00,58.0,57.0,29.50,SSE,157,4.0,5.0,98,0.00,,,0.31,TxWx,2013-05-11 14:40:00,
2013-05-11 10:45:00,58.0,57.0,29.50,South,180,4.0,4.0,98,0.00,,,0.31,TxWx,2013-05-11 14:45:00,
2013-05-11 10:50:00,58.0,57.0,29.50,SW,225,4.0,6.0,98,0.00,,,0.31,TxWx,2013-05-11 14:50:00,
2013-05-11 10:55:00,58.0,57.0,29.49,SE,135,3.0,3.0,98,0.00,,,0.31,TxWx,2013-05-11 14:55:00,
2013-05-11 11:00:00,59.0,58.0,29.49,WSW,247,5.0,7.0,98,0.00,,,0.31,TxWx,2013-05-11 15:00:00,
2013-05-11 11:05:00,59.0,58.0,29.50,WNW,292,3.0,4.0,98,0.00,,,0.31,TxWx,2013-05-11 15:05:00,
2013-05-11 11:11:00,59.0,58.0,29.50,SSW,202,3.0,3.0,98,0.00,,,0.31,TxWx,2013-05-11 15:11:00,
2013-05-11 11:16:00,59.0,58.0,29.50,SSW,202,5.0,5.0,97,0.00,,,0.31,TxWx,2013-05-11 15:16:00,
2013-05-11 11:21:00,59.0,58.0,29.49,SSW,202,3.0,3.0,97,0.00,,,0.31,TxWx,2013-05-11 15:21:00,
2013-05-11 11:27:00,59.0,58.0,29.50,SSW,202,6.0,7.0,97,0.00,,,0.31,TxWx,2013-05-11 15:27:00,
2013-05-11 11:32:00,59.0,58.0,29.50,West,270,2.0,3.0,97,0.00,,,0.31,TxWx,2013-05-11 15:32:00,
2013-05-11 11:37:00,59.0,58.0,29.50,SW,225,5.0,7.0,97,0.00,,,0.31,TxWx,2013-05-11 15:37:00,
2013-05-11 11:42:00,58.0,57.0,29.50,WSW,247,5.0,6.0,97,0.00,,,0.32,TxWx,2013-05-11 15:42:00,
2013-05-11 11:47:00,58.0,57.0,29.50,WSW,247,3.0,3.0,97,0.00,,,0.36,TxWx,2013-05-11 15:47:00,
2013-05-11 11:53:00,58.0,57.0,29.50,West,270,3.0,4.0,97,0.60,,,0.36,TxWx,2013-05-11 15:53:00,
2013-05-11 11:58:00,58.0,57.0,29.50,West,270,5.0,5.0,97,0.60,,,0.36,TxWx,2013-05-11 15:58:00,
2013-05-11 12:03:00,58.0,57.0,29.50,SSW,202,6.0,6.0,97,0.00,,,0.37,TxWx,2013-05-11 16:03:00,
2013-05-11 12:09:00,58.0,57.0,29.50,South,180,5.0,8.0,97,0.00,,,0.37,TxWx,2013-05-11 16:09:00,
2013-05-11 12:14:00,59.0,58.0,29.50,West,270,2.0,3.0,97,0.60,,,0.37,TxWx,2013-05-11 16:14:00,
2013-05-11 12:19:00,59.0,58.0,29.50,WSW,247,6.0,6.0,97,0.60,,,0.37,TxWx,2013-05-11 16:19:00,
2013-05-11 12:24:00,59.0,58.0,29.50,WNW,292,3.0,3.0,97,0.00,,,0.37,TxWx,2013-05-11 16:24:00,
2013-05-11 12:30:00,59.0,58.0,29.50,SW,225,3.0,4.0,97,0.00,,,0.37,TxWx,2013-05-11 16:30:00,
2013-05-11 12:35:00,59.0,58.0,29.50,West,270,6.0,6.0,96,0.00,,,0.37,TxWx,2013-05-11 16:35:00,
2013-05-11 12:40:00,58.0,57.0,29.50,West,270,8.0,10.0,96,0.00,,,0.37,TxWx,2013-05-11 16:40:00,
2013-05-11 12:45:00,58.0,57.0,29.50,NNW,337,6.0,10.0,95,0.00,,,0.37,TxWx,2013-05-11 16:45:00,
2013-05-11 12:51:00,58.0,56.0,29.50,WNW,292,5.0,8.0,95,0.00,,,0.37,TxWx,2013-05-11 16:51:00,
2013-05-11 12:56:00,58.0,56.0,29.50,SW,225,5.0,6.0,93,0.00,,,0.37,TxWx,2013-05-11 16:56:00,
2013-05-11 13:01:00,59.0,57.0,29.50,West,270,9.0,13.0,93,0.00,,,0.37,TxWx,2013-05-11 17:01:00,
2013-05-11 13:06:00,59.0,56.0,29.50,West,270,11.0,13.0,91,0.00,,,0.37,TxWx,2013-05-11 17:06:00,
2013-05-11 13:11:00,59.0,56.0,29.50,West,270,8.0,10.0,90,0.00,,,0.37,TxWx,2013-05-11 17:11:00,
2013-05-11 13:17:00,59.0,56.0,29.51,SW,225,6.0,10.0,89,0.00,,,0.37,TxWx,2013-05-11 17:17:00,
2013-05-11 13:22:00,58.0,54.0,29.50,WNW,292,6.0,6.0,88,0.00,,,0.37,TxWx,2013-05-11 17:22:00,
2013-05-11 13:28:00,59.0,56.0,29.50,SW,225,2.0,4.0,89,0.00,,,0.37,TxWx,2013-05-11 17:28:00,
2013-05-11 13:33:00,59.0,55.0,29.50,South,180,3.0,6.0,87,0.00,,,0.37,TxWx,2013-05-11 17:33:00,
2013-05-11 13:38:00,59.0,55.0,29.51,WSW,247,6.0,8.0,87,0.00,,,0.37,TxWx,2013-05-11 17:38:00,
2013-05-11 13:44:00,58.0,54.0,29.51,SW,225,4.0,4.0,87,0.00,,,0.37,TxWx,2013-05-11 17:44:00,
2013-05-11 13:49:00,58.0,54.0,29.51,WSW,247,3.0,6.0,87,0.00,,,0.37,TxWx,2013-05-11 17:49:00,
2013-05-11 13:55:00,58.0,54.0,29.51,NW,315,8.0,11.0,87,0.00,,,0.37,TxWx,2013-05-11 17:55:00,
2013-05-11 14:00:00,58.0,54.0,29.51,WSW,247,8.0,8.0,87,0.00,,,0.37,TxWx,2013-05-11 18:00:00,
2013-05-11 14:05:00,57.0,53.0,29.51,WNW,292,8.0,11.0,88,0.00,,,0.37,TxWx,2013-05-11 18:05:00,
2013-05-11 14:10:00,57.0,53.0,29.51,WNW,292,10.0,14.0,87,0.00,,,0.37,TxWx,2013-05-11 18:10:00,
2013-05-11 14:16:00,57.0,53.0,29.50,SW,225,6.0,8.0,87,0.00,,,0.37,TxWx,2013-05-11 18:16:00,
2013-05-11 14:21:00,57.0,53.0,29.50,WNW,292,5.0,9.0,88,0.00,,,0.37,TxWx,2013-05-11 18:21:00,
2013-05-11 14:26:00,56.0,52.0,29.50,West,270,8.0,13.0,88,0.00,,,0.37,TxWx,2013-05-11 18:26:00,
2013-05-11 14:32:00,56.0,52.0,29.50,West,270,9.0,11.0,88,0.00,,,0.37,TxWx,2013-05-11 18:32:00,
2013-05-11 14:37:00,56.0,52.0,29.50,West,270,4.0,6.0,88,0.00,,,0.37,TxWx,2013-05-11 18:37:00,
2013-05-11 14:42:00,56.0,52.0,29.50,SW,225,6.0,11.0,88,0.00,,,0.37,TxWx,2013-05-11 18:42:00,
2013-05-11 14:47:00,56.0,52.0,29.50,West,270,5.0,8.0,87,0.00,,,0.37,TxWx,2013-05-11 18:47:00,
2013-05-11 14:53:00,56.0,52.0,29.51,West,270,6.0,11.0,87,0.00,,,0.37,TxWx,2013-05-11 18:53:00,
2013-05-11 14:58:00,56.0,52.0,29.50,WSW,247,8.0,8.0,87,0.00,,,0.37,TxWx,2013-05-11 18:58:00,
2013-05-11 15:00:00,45.0,43.0,29.54,WNW,292,4.0,4.0,92,0.00,,,0.00,TxWx,2013-05-11 19:00:00,
2013-05-11 15:01:00,45.0,43.0,29.54,WNW,292,3.0,3.0,92,0.00,,,0.00,TxWx,2013-05-11 19:01:00,
2013-05-11 15:02:00,45.0,43.0,29.54,West,270,3.0,3.0,92,0.00,,,0.00,TxWx,2013-05-11 19:02:00,
2013-05-11 15:03:00,57.0,53.0,29.51,WSW,247,8.0,8.0,86,0.00,,,0.37,TxWx,2013-05-11 19:03:00,
2013-05-11 15:04:00,45.0,43.0,29.54,SSW,202,1.0,1.0,92,0.00,,,0.00,TxWx,2013-05-11 19:04:00,
2013-05-11 15:05:00,45.0,43.0,29.54,South,180,1.0,2.0,92,0.00,,,0.00,TxWx,2013-05-11 19:05:00,
2013-05-11 15:06:00,45.0,43.0,29.54,SSW,202,1.0,1.0,92,0.00,,,0.00,TxWx,2013-05-11 19:06:00,
2013-05-11 15:07:00,45.0,43.0,29.54,South,180,0.0,0.0,92,0.00,,,0.00,TxWx,2013-05-11 19:07:00,
2013-05-11 15:08:00,45.0,43.0,29.55,SSE,157,0.0,1.0,92,0.00,,,0.00,TxWx,2013-05-11 19:08:00,
2013-05-11 15:09:00,57.0,53.0,29.50,South,180,3.0,4.0,86,0.00,,,0.37,TxWx,2013-05-11 19:09:00,
2013-05-11 15:10:00,45.0,43.0,29.54,WSW,247,2.0,3.0,92,0.00,,,0.00,TxWx,2013-05-11 19:10:00,
2013-05-11 15:11:00,45.0,43.0,29.54,SSW,202,1.0,1.0,92,0.00,,,0.00,TxWx,2013-05-11 19:11:00,
2013-05-11 15:12:00,45.0,43.0,29.55,SSW,202,1.0,2.0,92,0.00,,,0.00,TxWx,2013-05-11 19:12:00,
2013-05-11 15:13:00,45.0,43.0,29.55,SSW,202,1.0,1.0,92,0.00,,,0.00,TxWx,2013-05-11 19:13:00,
2013-05-11 15:14:00,57.0,53.0,29.51,West,270,4.0,5.0,86,0.00,,,0.37,TxWx,2013-05-11 19:14:00,
2013-05-11 15:15:00,45.0,43.0,29.55,SSW,202,1.0,1.0,92,0.00,,,0.00,TxWx,2013-05-11 19:15:00,
2013-05-11 15:16:00,45.0,43.0,29.55,SSW,202,1.0,1.0,92,0.00,,,0.00,TxWx,2013-05-11 19:16:00,
2013-05-11 15:17:00,45.0,43.0,29.55,South,180,2.0,2.0,92,0.00,,,0.00,TxWx,2013-05-11 19:17:00,
2013-05-11 15:18:00,45.0,43.0,29.55,SSW,202,1.0,1.0,92,0.00,,,0.00,TxWx,2013-05-11 19:18:00,
2013-05-11 15:19:00,57.0,52.0,29.50,West,270,10.0,11.0,85,0.00,,,0.37,TxWx,2013-05-11 19:19:00,
2013-05-11 15:20:00,45.0,43.0,29.55,SSW,202,1.0,1.0,92,0.00,,,0.00,TxWx,2013-05-11 19:20:00,
2013-05-11 15:21:00,45.0,43.0,29.55,South,180,0.0,0.0,92,0.00,,,0.00,TxWx,2013-05-11 19:21:00,
2013-05-11 15:22:00,45.0,43.0,29.55,South,180,0.0,0.0,92,0.00,,,0.00,TxWx,2013-05-11 19:22:00,
2013-05-11 15:23:00,45.0,43.0,29.55,SSW,202,0.0,0.0,92,0.00,,,0.00,TxWx,2013-05-11 19:23:00,
2013-05-11 15:24:00,57.0,52.0,29.50,WNW,292,5.0,11.0,84,0.00,,,0.37,TxWx,2013-05-11 19:24:00,
2013-05-11 15:25:00,45.0,43.0,29.55,NW,315,0.0,0.0,92,0.00,,,0.00,TxWx,2013-05-11 19:25:00,
2013-05-11 15:26:00,45.0,43.0,29.55,West,270,1.0,1.0,92,0.00,,,0.00,TxWx,2013-05-11 19:26:00,
2013-05-11 15:27:00,45.0,43.0,29.55,NW,315,1.0,1.0,92,0.00,,,0.00,TxWx,2013-05-11 19:27:00,
2013-05-11 15:28:00,45.0,43.0,29.55,West,270,3.0,3.0,92,0.00,,,0.00,TxWx,2013-05-11 19:28:00,
2013-05-11 15:29:00,56.0,51.0,29.50,West,270,10.0,11.0,84,0.00,,,0.37,TxWx,2013-05-11 19:29:00,
2013-05-11 15:30:00,45.0,43.0,29.55,NNW,337,3.0,3.0,92,0.00,,,0.00,TxWx,2013-05-11 19:30:00,
2013-05-11 15:31:00,45.0,43.0,29.55,NW,315,4.0,4.0,92,0.00,,,0.00,TxWx,2013-05-11 19:31:00,
2013-05-11 15:32:00,45.0,43.0,29.55,West,270,4.0,5.0,93,0.00,,,0.00,TxWx,2013-05-11 19:32:00,
2013-05-11 15:33:00,45.0,43.0,29.55,WNW,292,3.0,3.0,93,0.00,,,0.00,TxWx,2013-05-11 19:33:00,
2013-05-11 15:34:00,45.0,43.0,29.55,North,0,3.0,3.0,93,0.00,,,0.00,TxWx,2013-05-11 19:34:00,
2013-05-11 15:35:00,56.0,52.0,29.50,SW,225,6.0,7.0,85,0.00,,,0.37,TxWx,2013-05-11 19:35:00,
2013-05-11 15:36:00,45.0,43.0,29.55,West,270,3.0,3.0,93,0.00,,,0.00,TxWx,2013-05-11 19:36:00,
2013-05-11 15:37:00,44.0,43.0,29.55,West,270,3.0,4.0,93,0.00,,,0.00,TxWx,2013-05-11 19:37:00,
2013-05-11 15:38:00,45.0,43.0,29.55,SSW,202,1.0,1.0,93,0.00,,,0.00,TxWx,2013-05-11 19:38:00,
2013-05-11 15:39:00,45.0,43.0,29.55,NW,315,2.0,2.0,93,0.00,,,0.00,TxWx,2013-05-11 19:39:00,
2013-05-11 15:40:00,56.0,52.0,29.51,West,270,3.0,5.0,86,0.00,,,0.37,TxWx,2013-05-11 19:40:00,
2013-05-11 15:41:00,44.0,42.0,29.55,WSW,247,2.0,3.0,93,0.00,,,0.00,TxWx,2013-05-11 19:41:00,
2013-05-11 15:42:00,44.0,42.0,29.55,WSW,247,2.0,3.0,93,0.00,,,0.00,TxWx,2013-05-11 19:42:00,
2013-05-11 15:43:00,44.0,42.0,29.55,NW,315,4.0,5.0,93,0.00,,,0.00,TxWx,2013-05-11 19:43:00,
2013-05-11 15:44:00,44.0,42.0,29.55,West,270,2.0,2.0,93,0.00,,,0.00,TxWx,2013-05-11 19:44:00,
2013-05-11 15:45:00,56.0,52.0,29.51,SSW,202,2.0,3.0,86,0.00,,,0.37,TxWx,2013-05-11 19:45:00,
2013-05-11 15:46:00,44.0,42.0,29.55,SSW,202,0.0,1.0,93,0.00,,,0.00,TxWx,2013-05-11 19:46:00,
2013-05-11 15:47:00,44.0,42.0,29.55,West,270,4.0,4.0,93,0.00,,,0.00,TxWx,2013-05-11 19:47:00,
2013-05-11 15:48:00,44.0,42.0,29.55,West,270,3.0,3.0,93,0.00,,,0.00,TxWx,2013-05-11 19:48:00,
2013-05-11 15:49:00,44.0,42.0,29.55,South,180,1.0,1.0,93,0.00,,,0.00,TxWx,2013-05-11 19:49:00,
2013-05-11 15:50:00,56.0,52.0,29.51,West,270,7.0,10.0,86,0.00,,,0.37,TxWx,2013-05-11 19:50:00,
2013-05-11 15:55:00,44.0,42.0,29.55,West,270,4.0,6.0,93,0.00,,,0.00,TxWx,2013-05-11 19:55:00,
2013-05-11 15:56:00,56.0,51.0,29.51,WNW,292,6.0,6.0,84,0.00,,,0.37,TxWx,2013-05-11 19:56:00,
2013-05-11 16:01:00,56.0,51.0,29.51,West,270,5.0,7.0,84,0.00,,,0.37,TxWx,2013-05-11 20:01:00,
2013-05-11 16:03:00,44.0,42.0,29.55,WNW,292,10.0,10.0,93,0.00,,,0.00,TxWx,2013-05-11 20:03:00,
2013-05-11 16:04:00,44.0,42.0,29.55,West,270,6.0,9.0,93,0.00,,,0.00,TxWx,2013-05-11 20:04:00,
2013-05-11 16:06:00,56.0,51.0,29.51,West,270,6.0,7.0,83,0.00,,,0.37,TxWx,2013-05-11 20:06:00,
2013-05-11 16:08:00,44.0,42.0,29.55,West,270,4.0,5.0,93,0.00,,,0.00,TxWx,2013-05-11 20:08:00,
2013-05-11 16:11:00,55.0,50.0,29.51,NW,315,8.0,10.0,83,0.00,,,0.37,TxWx,2013-05-11 20:11:00,
2013-05-11 16:17:00,55.0,50.0,29.51,WNW,292,5.0,8.0,84,0.00,,,0.37,TxWx,2013-05-11 20:17:00,
2013-05-11 16:22:00,55.0,50.0,29.51,WNW,292,6.0,7.0,83,0.00,,,0.37,TxWx,2013-05-11 20:22:00,
2013-05-11 16:27:00,55.0,50.0,29.51,WSW,247,3.0,3.0,84,0.00,,,0.37,TxWx,2013-05-11 20:27:00,
2013-05-11 16:32:00,54.0,49.0,29.51,West,270,4.0,5.0,84,0.00,,,0.37,TxWx,2013-05-11 20:32:00,
2013-05-11 16:38:00,54.0,49.0,29.51,NW,315,8.0,9.0,83,0.00,,,0.37,TxWx,2013-05-11 20:38:00,
2013-05-11 16:43:00,54.0,49.0,29.52,WNW,292,10.0,10.0,82,0.00,,,0.37,TxWx,2013-05-11 20:43:00,
2013-05-11 16:48:00,54.0,48.0,29.51,West,270,5.0,6.0,82,0.00,,,0.37,TxWx,2013-05-11 20:48:00,
2013-05-11 16:53:00,54.0,48.0,29.51,West,270,5.0,5.0,80,0.00,,,0.37,TxWx,2013-05-11 20:53:00,
2013-05-11 16:59:00,54.0,48.0,29.51,WNW,292,5.0,10.0,81,0.00,,,0.37,TxWx,2013-05-11 20:59:00,
2013-05-11 17:04:00,54.0,48.0,29.52,NW,315,6.0,6.0,81,0.00,,,0.37,TxWx,2013-05-11 21:04:00,
2013-05-11 17:09:00,55.0,49.0,29.52,WSW,247,2.0,3.0,82,0.00,,,0.37,TxWx,2013-05-11 21:09:00,
2013-05-11 17:14:00,55.0,49.0,29.51,NNW,337,3.0,5.0,81,0.00,,,0.37,TxWx,2013-05-11 21:14:00,
2013-05-11 17:19:00,56.0,50.0,29.52,SW,225,5.0,6.0,80,0.00,,,0.37,TxWx,2013-05-11 21:19:00,
2013-05-11 17:25:00,55.0,48.0,29.52,West,270,9.0,9.0,78,0.00,,,0.37,TxWx,2013-05-11 21:25:00,
2013-05-11 17:30:00,55.0,48.0,29.52,WSW,247,3.0,5.0,78,0.00,,,0.37,TxWx,2013-05-11 21:30:00,
2013-05-11 17:35:00,55.0,48.0,29.52,SSW,202,3.0,3.0,79,0.00,,,0.37,TxWx,2013-05-11 21:35:00,
2013-05-11 17:41:00,55.0,48.0,29.52,WSW,247,4.0,6.0,78,0.00,,,0.37,TxWx,2013-05-11 21:41:00,
2013-05-11 17:46:00,55.0,48.0,29.52,WSW,247,4.0,8.0,78,0.00,,,0.37,TxWx,2013-05-11 21:46:00,
2013-05-11 17:51:00,55.0,48.0,29.52,West,270,8.0,8.0,79,0.00,,,0.37,TxWx,2013-05-11 21:51:00,
2013-05-11 17:56:00,55.0,48.0,29.52,West,270,3.0,3.0,78,0.00,,,0.37,TxWx,2013-05-11 21:56:00,
2013-05-11 18:02:00,55.0,48.0,29.52,SW,225,5.0,5.0,79,0.00,,,0.37,TxWx,2013-05-11 22:02:00,
2013-05-11 18:07:00,55.0,49.0,29.52,WSW,247,5.0,5.0,80,0.00,,,0.37,TxWx,2013-05-11 22:07:00,
2013-05-11 18:12:00,55.0,49.0,29.52,NNW,337,5.0,7.0,80,0.00,,,0.37,TxWx,2013-05-11 22:12:00,
2013-05-11 18:17:00,55.0,49.0,29.53,WNW,292,5.0,5.0,80,0.00,,,0.37,TxWx,2013-05-11 22:17:00,
2013-05-11 18:23:00,54.0,48.0,29.53,West,270,6.0,8.0,79,0.00,,,0.37,TxWx,2013-05-11 22:23:00,
2013-05-11 18:28:00,54.0,48.0,29.53,West,270,3.0,5.0,79,0.00,,,0.37,TxWx,2013-05-11 22:28:00,
2013-05-11 18:33:00,55.0,49.0,29.53,North,0,4.0,8.0,80,0.00,,,0.37,TxWx,2013-05-11 22:33:00,
2013-05-11 18:38:00,55.0,48.0,29.53,West,270,3.0,4.0,78,0.00,,,0.37,TxWx,2013-05-11 22:38:00,
2013-05-11 18:44:00,55.0,48.0,29.53,SW,225,1.0,1.0,78,0.00,,,0.37,TxWx,2013-05-11 22:44:00,
2013-05-11 18:49:00,55.0,48.0,29.53,WNW,292,5.0,6.0,77,0.00,,,0.37,TxWx,2013-05-11 22:49:00,
2013-05-11 18:55:00,55.0,48.0,29.53,WNW,292,4.0,6.0,77,0.00,,,0.37,TxWx,2013-05-11 22:55:00,
2013-05-11 19:00:00,54.0,47.0,29.53,SW,225,4.0,7.0,77,0.00,,,0.37,TxWx,2013-05-11 23:00:00,
2013-05-11 19:05:00,54.0,47.0,29.53,WNW,292,4.0,4.0,78,0.00,,,0.37,TxWx,2013-05-11 23:05:00,
2013-05-11 19:10:00,53.0,46.0,29.54,SSE,157,2.0,3.0,78,0.00,,,0.37,TxWx,2013-05-11 23:10:00,
2013-05-11 19:16:00,53.0,46.0,29.54,West,270,3.0,5.0,78,0.00,,,0.37,TxWx,2013-05-11 23:16:00,
2013-05-11 19:21:00,53.0,47.0,29.54,SW,225,3.0,3.0,79,0.00,,,0.37,TxWx,2013-05-11 23:21:00,
2013-05-11 19:26:00,52.0,46.0,29.54,WNW,292,3.0,4.0,80,0.00,,,0.37,TxWx,2013-05-11 23:26:00,
2013-05-11 19:31:00,52.0,46.0,29.54,SW,225,3.0,3.0,81,0.00,,,0.37,TxWx,2013-05-11 23:31:00,
2013-05-11 19:36:00,52.0,46.0,29.54,WSW,247,3.0,3.0,81,0.00,,,0.37,TxWx,2013-05-11 23:36:00,
2013-05-11 19:41:00,52.0,46.0,29.54,NW,315,1.0,3.0,81,0.00,,,0.37,TxWx,2013-05-11 23:41:00,
2013-05-11 19:46:00,51.0,46.0,29.54,WNW,292,3.0,3.0,82,0.00,,,0.37,TxWx,2013-05-11 23:46:00,
2013-05-11 19:52:00,51.0,46.0,29.54,WNW,292,3.0,5.0,83,0.00,,,0.37,TxWx,2013-05-11 23:52:00,
2013-05-11 19:57:00,51.0,46.0,29.55,WSW,247,2.0,3.0,84,0.00,,,0.37,TxWx,2013-05-11 23:57:00,
2013-05-11 20:02:00,50.0,45.0,29.55,NNW,337,5.0,5.0,84,0.00,,,0.37,TxWx,2013-05-12 00:02:00,
2013-05-11 20:08:00,50.0,46.0,29.55,WNW,292,1.0,2.0,85,0.00,,,0.37,TxWx,2013-05-12 00:08:00,
2013-05-11 20:13:00,50.0,46.0,29.56,WSW,247,3.0,3.0,86,0.00,,,0.37,TxWx,2013-05-12 00:13:00,
2013-05-11 20:18:00,50.0,46.0,29.56,WSW,247,5.0,6.0,86,0.00,,,0.37,TxWx,2013-05-12 00:18:00,
2013-05-11 20:24:00,49.0,45.0,29.56,West,270,3.0,3.0,87,0.00,,,0.37,TxWx,2013-05-12 00:24:00,
2013-05-11 20:29:00,49.0,45.0,29.56,WNW,292,2.0,3.0,87,0.00,,,0.37,TxWx,2013-05-12 00:29:00,
2013-05-11 20:35:00,49.0,45.0,29.56,NNW,337,3.0,3.0,87,0.00,,,0.37,TxWx,2013-05-12 00:35:00,
2013-05-11 20:40:00,49.0,45.0,29.56,West,270,3.0,3.0,87,0.00,,,0.37,TxWx,2013-05-12 00:40:00,
2013-05-11 20:45:00,49.0,45.0,29.57,WNW,292,2.0,3.0,88,0.00,,,0.37,TxWx,2013-05-12 00:45:00,
2013-05-11 20:50:00,48.0,44.0,29.56,SW,225,1.0,1.0,88,0.00,,,0.37,TxWx,2013-05-12 00:50:00,
2013-05-11 20:56:00,48.0,44.0,29.56,SSW,202,0.0,0.0,88,0.00,,,0.37,TxWx,2013-05-12 00:56:00,
2013-05-11 21:01:00,48.0,44.0,29.56,West,270,2.0,2.0,88,0.00,,,0.37,TxWx,2013-05-12 01:01:00,
2013-05-11 21:06:00,48.0,45.0,29.56,West,270,1.0,1.0,88,0.00,,,0.37,TxWx,2013-05-12 01:06:00,
2013-05-11 21:11:00,47.0,44.0,29.56,SSW,202,0.0,1.0,88,0.00,,,0.37,TxWx,2013-05-12 01:11:00,
2013-05-11 21:17:00,47.0,44.0,29.56,SW,225,1.0,1.0,89,0.00,,,0.37,TxWx,2013-05-12 01:17:00,
2013-05-11 21:22:00,47.0,44.0,29.56,West,270,2.0,3.0,89,0.00,,,0.37,TxWx,2013-05-12 01:22:00,
2013-05-11 21:27:00,47.0,44.0,29.56,SW,225,1.0,1.0,90,0.00,,,0.37,TxWx,2013-05-12 01:27:00,
2013-05-11 21:33:00,47.0,44.0,29.56,SSW,202,1.0,1.0,90,0.00,,,0.37,TxWx,2013-05-12 01:33:00,
2013-05-11 21:38:00,47.0,44.0,29.56,West,270,2.0,2.0,90,0.00,,,0.37,TxWx,2013-05-12 01:38:00,
2013-05-11 21:43:00,47.0,44.0,29.56,SSE,157,1.0,1.0,90,0.00,,,0.37,TxWx,2013-05-12 01:43:00,
2013-05-11 21:48:00,47.0,44.0,29.56,SW,225,2.0,3.0,91,0.00,,,0.37,TxWx,2013-05-12 01:48:00,
2013-05-11 21:54:00,47.0,44.0,29.56,South,180,2.0,3.0,91,0.00,,,0.37,TxWx,2013-05-12 01:54:00,
2013-05-11 21:59:00,47.0,45.0,29.56,WSW,247,3.0,3.0,91,0.00,,,0.37,TxWx,2013-05-12 01:59:00,
2013-05-11 22:04:00,47.0,45.0,29.56,NW,315,3.0,3.0,91,0.00,,,0.37,TxWx,2013-05-12 02:04:00,
2013-05-11 22:09:00,47.0,45.0,29.56,WSW,247,3.0,3.0,91,0.00,,,0.37,TxWx,2013-05-12 02:09:00,
2013-05-11 22:14:00,47.0,45.0,29.56,WNW,292,4.0,4.0,92,0.00,,,0.37,TxWx,2013-05-12 02:14:00,
2013-05-11 22:19:00,47.0,45.0,29.56,WNW,292,3.0,3.0,91,0.00,,,0.37,TxWx,2013-05-12 02:19:00,
2013-05-11 22:24:00,47.0,45.0,29.56,SW,225,5.0,6.0,91,0.00,,,0.37,TxWx,2013-05-12 02:24:00,
2013-05-11 22:30:00,47.0,44.0,29.56,West,270,4.0,4.0,91,0.00,,,0.37,TxWx,2013-05-12 02:30:00,
2013-05-11 22:35:00,47.0,44.0,29.55,West,270,6.0,7.0,90,0.00,,,0.37,TxWx,2013-05-12 02:35:00,
2013-05-11 22:40:00,47.0,44.0,29.55,WNW,292,6.0,6.0,90,0.00,,,0.37,TxWx,2013-05-12 02:40:00,
2013-05-11 22:45:00,47.0,44.0,29.55,WSW,247,8.0,11.0,90,0.00,,,0.37,TxWx,2013-05-12 02:45:00,
2013-05-11 22:50:00,47.0,44.0,29.56,West,270,5.0,6.0,90,0.00,,,0.37,TxWx,2013-05-12 02:50:00,
2013-05-11 22:56:00,47.0,44.0,29.56,WNW,292,3.0,3.0,90,0.00,,,0.37,TxWx,2013-05-12 02:56:00,
2013-05-11 23:01:00,47.0,44.0,29.56,West,270,8.0,10.0,90,0.00,,,0.37,TxWx,2013-05-12 03:01:00,
2013-05-11 23:06:00,47.0,44.0,29.56,WNW,292,3.0,3.0,90,0.00,,,0.37,TxWx,2013-05-12 03:06:00,
2013-05-11 23:11:00,47.0,44.0,29.56,WNW,292,5.0,5.0,90,0.00,,,0.37,TxWx,2013-05-12 03:11:00,
2013-05-11 23:16:00,47.0,44.0,29.55,West,270,4.0,4.0,90,0.00,,,0.37,TxWx,2013-05-12 03:16:00,
2013-05-11 23:21:00,47.0,44.0,29.55,NW,315,6.0,6.0,90,0.00,,,0.37,TxWx,2013-05-12 03:21:00,
2013-05-11 23:26:00,46.0,43.0,29.55,WNW,292,3.0,3.0,90,0.00,,,0.37,TxWx,2013-05-12 03:26:00,
2013-05-11 23:32:00,46.0,43.0,29.55,WNW,292,3.0,3.0,90,0.00,,,0.37,TxWx,2013-05-12 03:32:00,
2013-05-11 23:37:00,46.0,43.0,29.54,SSE,157,1.0,3.0,91,0.00,,,0.37,TxWx,2013-05-12 03:37:00,
2013-05-11 23:42:00,46.0,43.0,29.54,WSW,247,2.0,2.0,91,0.00,,,0.37,TxWx,2013-05-12 03:42:00,
2013-05-11 23:47:00,46.0,44.0,29.54,West,270,3.0,4.0,91,0.00,,,0.37,TxWx,2013-05-12 03:47:00,
2013-05-11 23:52:00,45.0,43.0,29.54,West,270,2.0,2.0,91,0.00,,,0.37,TxWx,2013-05-12 03:52:00,
2013-05-11 23:57:00,45.0,43.0,29.54,West,270,3.0,4.0,91,0.00,,,0.37,TxWx,2013-05-12 03:57:00,